[[{"header":{"parameterUnit":"m.s-1","parameterCategory":1,"la1":30.2991,"la2":30.254,"lo1":-89.0895,"lo2":-89.0444,"dy":0.0017,"dx":0.0017,"nx":28,"ny":28,"refTime":"2025-04-09T03:00:00:Z","depth":0,"parameterNumber":2,"parameterNumberName":"U-component_of_WINDS"},"data":[0,0,0,0,0,0,0,0,0,0,0,0,0,0,0,0,0,0,0,0,0,0,0,0,0,0,0,0,0,0,0,0,0,0,0,0,0,0,0,0,0,0,0,0,0,0,0,0,0,0,0,0,0,0,0,0,0,0,1.2682,1.2683,0,1.2702,1.2703,1.2703,1.2639,1.2637,1.2635,1.2634,1.2658,1.266,1.2663,0,0,0,0,0,0,0,0,0,0,0,0,0,1.2591,1.2593,1.2682,1.2683,1.2683,1.2702,1.2703,1.2703,1.264,1.2637,1.2635,1.2633,1.2657,1.266,1.2663,0,0,0,0,0,0,0,0,0,0,0,0,0,1.2623,1.2593,1.2682,1.2654,1.2651,1.2702,1.2703,1.2703,1.264,1.2637,1.2634,1.2632,1.2656,1.266,1.2663,1.2744,0,0,1.2675,1.2676,0,0,0,0,0,0,0,0,1.2621,1.2626,1.2658,1.2656,1.2653,1.2665,1.2679,1.2717,1.2641,1.2645,1.2634,1.263,1.2663,1.2666,1.2676,1.2745,1.2746,1.2675,1.2677,1.2679,1.268,0,0,0,0,0,0,0,1.2619,1.2625,1.269,1.2658,1.2655,1.264,1.2641,1.2686,1.267,1.2644,1.2639,1.2642,1.2661,1.2673,1.2676,1.2747,1.2675,1.2678,1.268,1.2682,1.288,1.2883,0,0,0,0,0,0,1.262,1.2624,1.269,1.2691,1.2629,1.2644,1.2646,1.2664,1.2669,1.2667,1.2645,1.2639,1.2668,1.2672,1.2677,1.2769,1.2679,1.2682,1.2684,1.2877,1.2881,1.2884,0,0,0,0,0,0,1.2618,1.2627,1.2689,1.2656,1.2663,1.2649,1.267,1.2666,1.2678,1.267,1.2667,1.266,1.2666,1.2672,1.2727,1.277,1.2684,1.2687,1.2873,1.2878,1.2882,1.2957,0,0,0,0,0,0,1.2616,1.2626,1.2657,1.2657,1.2665,1.2739,1.2673,1.2669,1.2684,1.2677,1.2683,1.2681,1.2664,1.2722,1.2731,1.2773,1.269,1.2869,1.2875,1.2881,1.2951,1.2964,1.2975,0,0,0,0,0,1.2613,1.2679,1.2659,1.2667,1.2703,1.2741,1.2746,1.2724,1.2688,1.2718,1.2712,1.2681,1.2763,1.2728,1.2737,1.2782,1.2867,1.2874,1.288,1.2946,1.2961,1.2975,0,0,0,0,0,0,1.2687,1.2679,1.2656,1.2724,1.2734,1.273,1.2769,1.2742,1.2763,1.2755,1.2728,1.273,1.2789,1.2791,1.2752,1.2858,1.2809,1.2818,1.2855,1.287,1.2882,1.288,1.2693,0,0,0,0,0,1.271,1.2742,1.2733,1.2794,1.28,1.2783,1.28,1.2781,1.279,1.2795,1.2793,1.2804,1.2832,1.2851,1.2877,1.2951,1.295,1.2986,1.2998,1.3007,1.3016,1.3052,1.3067,1.2906,1.2906,1.2906,0,0,1.2761,1.276,1.2782,1.2809,1.2814,1.2847,1.2787,1.2826,1.285,1.2801,1.2852,1.2851,1.2861,1.2925,1.2953,1.2929,1.3059,1.3016,1.3024,1.3027,1.3061,1.3076,1.3089,1.2911,1.291,1.2909,0,0,1.2869,1.2872,1.2921,1.2927,1.2934,1.2922,1.2934,1.2934,1.2931,1.2981,1.2944,1.2973,1.3023,1.303,1.3041,1.3148,1.3119,1.3157,1.322,1.3256,1.3268,1.3279,1.3316,1.3329,1.3165,1.3165,1.3166,0,1.2931,1.2978,1.2951,1.299,1.3002,1.2957,1.3006,1.3013,1.303,1.3039,1.301,1.3069,1.3073,1.3137,1.3162,1.3173,1.3185,1.3156,1.3268,1.3279,1.3289,1.3323,1.3337,1.317,1.3169,1.3169,1.3168,0,1.3052,1.3086,1.3125,1.3138,1.3155,1.32,1.3179,1.3199,1.3178,1.3169,1.322,1.3222,1.3246,1.326,1.3242,1.3321,1.3305,1.3273,1.3222,1.3309,1.3341,1.3354,1.3176,1.3175,1.3173,1.3172,0,0,1.321,1.3205,1.3219,1.3224,1.3227,1.3252,1.3294,1.3315,1.3332,1.3344,1.3378,1.3419,1.3388,1.34,1.3382,1.3413,1.3495,1.3377,1.3377,1.3398,1.358,1.3603,1.3619,1.3476,1.3478,1.348,1.3578,0,1.3314,1.3383,1.3358,1.3429,1.3458,1.3414,1.345,1.3456,1.3448,1.3472,1.3463,1.3492,1.3451,1.3457,1.3486,1.3479,1.3531,1.3472,1.3506,1.3508,1.3504,1.3636,1.3661,1.3754,1.3591,1.3593,1.3594,0,1.3446,1.346,1.3533,1.3528,1.3539,1.3572,1.3587,1.3611,1.3616,1.3608,1.3619,1.3593,1.3633,1.3582,1.3636,1.3596,1.3609,1.3607,1.361,1.3612,1.3556,1.364,1.3783,1.3796,1.3614,1.3612,1.3611,0,1.355,1.3588,1.3636,1.3641,1.3637,1.366,1.366,1.3662,1.3675,1.3689,1.3697,1.3717,1.3728,1.3743,1.3723,1.3688,1.3779,1.3727,1.3773,1.3773,1.3794,1.3793,1.394,1.3804,1.3804,1.3804,1.3803,0,1.3669,1.3716,1.3682,1.3712,1.3761,1.3732,1.3782,1.3777,1.3778,1.3806,1.377,1.3796,1.3768,1.3792,1.3777,1.3822,1.3828,1.3822,1.3817,1.3825,1.3825,1.3832,1.3825,1.3807,1.3806,1.3806,1.3805,0,1.3795,1.3775,1.3823,1.3814,1.3813,1.385,1.3842,1.3868,1.3856,1.3891,1.3898,1.388,1.3906,1.3887,1.3914,1.3903,1.3963,1.395,1.396,1.3956,1.4002,1.3998,1.4159,1.4177,1.403,1.4032,1.4033,0,1.3872,1.3906,1.3899,1.3913,1.3914,1.3939,1.3951,1.3923,1.3938,1.3944,1.3969,1.3992,1.4008,1.4051,1.4041,1.4061,1.4047,1.4102,1.405,1.4055,1.4046,1.4044,1.4046,1.4112,1.4114,1.4115,1.4117,0,1.401,1.3997,1.4015,1.4029,1.4044,1.4055,1.4062,1.4077,1.4047,1.4065,1.409,1.4103,1.4127,1.415,1.4165,1.4165,1.4136,1.4133,1.4144,1.4152,1.4156,1.4153,1.3988,1.4129,1.4128,1.4127,1.4126,1.4126,1.4112,1.4139,1.4137,1.4158,1.416,1.4167,1.419,1.418,1.4199,1.4216,1.4199,1.4228,1.423,1.4247,1.425,1.4272,1.425,1.4267,1.4271,1.4275,1.4281,1.4153,1.4275,1.4275,1.4275,1.4274,1.4274,0,1.4247,1.4242,1.4262,1.4271,1.4287,1.4256,1.4262,1.4278,1.4304,1.4307,1.4322,1.435,1.437,1.436,1.4378,1.4398,1.4385,1.4404,1.4402,1.4402,1.4301,1.4289,1.4414,1.4414,1.4414,1.4413,1.4413,1.4413,1.4319,1.4361,1.4348,1.439,1.4386,1.4413,1.4418,1.4424,1.4426,1.4457,1.4473,1.4466,1.4463,1.448,1.4497,1.4494,1.4502,1.4525,1.4517,1.4423,1.4409,1.4396,1.4384,1.4527,1.4527,1.4615,1.4616,1.4616]},{"header":{"parameterUnit":"m.s-1","parameterCategory":1,"la1":30.2991,"la2":30.254,"lo1":-89.0895,"lo2":-89.0444,"dy":0.0017,"dx":0.0017,"nx":28,"ny":28,"refTime":"2025-04-09T03:00:00:Z","depth":0,"parameterNumber":3,"parameterNumberName":"V-component_of_WINDS"},"data":[0,0,0,0,0,0,0,0,0,0,0,0,0,0,0,0,0,0,0,0,0,0,0,0,0,0,0,0,0,0,0,0,0,0,0,0,0,0,0,0,0,0,0,0,0,0,0,0,0,0,0,0,0,0,0,0,0,0,2.713,2.713,0,2.7164,2.7164,2.7165,2.7137,2.7136,2.7135,2.7134,2.7166,2.7167,2.7169,0,0,0,0,0,0,0,0,0,0,0,0,0,2.7035,2.7037,2.713,2.713,2.713,2.7164,2.7164,2.7165,2.7137,2.7136,2.7135,2.7133,2.7165,2.7167,2.717,0,0,0,0,0,0,0,0,0,0,0,0,0,2.7073,2.7038,2.7129,2.7121,2.712,2.7164,2.7164,2.7165,2.7138,2.7136,2.7134,2.7133,2.7164,2.7167,2.717,2.7223,0,0,2.7179,2.718,0,0,0,0,0,0,0,0,2.7071,2.7077,2.7122,2.7121,2.7121,2.7145,2.7143,2.7184,2.7138,2.7131,2.7134,2.7132,2.716,2.7163,2.7173,2.7224,2.7225,2.7179,2.7181,2.7182,2.7183,0,0,0,0,0,0,0,2.7069,2.7075,2.7143,2.7122,2.7122,2.7114,2.7117,2.715,2.7155,2.7132,2.713,2.7134,2.7159,2.717,2.7174,2.7226,2.7179,2.7181,2.7183,2.7184,2.732,2.7321,0,0,0,0,0,0,2.7067,2.7073,2.7142,2.7144,2.7092,2.7117,2.7121,2.7139,2.7154,2.7155,2.7136,2.7133,2.7166,2.717,2.7175,2.7236,2.7182,2.7185,2.7186,2.7318,2.732,2.7322,0,0,0,0,0,0,2.7066,2.7074,2.7141,2.7108,2.7116,2.712,2.7141,2.714,2.7152,2.7158,2.7158,2.7147,2.7165,2.7171,2.7211,2.7237,2.7186,2.7189,2.7316,2.7318,2.7321,2.736,0,0,0,0,0,0,2.7063,2.7073,2.7095,2.7109,2.7118,2.7178,2.7142,2.7142,2.7157,2.7154,2.7168,2.7168,2.7164,2.7207,2.7214,2.724,2.7191,2.7313,2.7317,2.732,2.7356,2.7364,2.737,0,0,0,0,0,2.706,2.7104,2.7096,2.7104,2.7145,2.7179,2.7184,2.7179,2.7159,2.718,2.7183,2.7168,2.7233,2.7211,2.7219,2.7246,2.7312,2.7316,2.732,2.7353,2.7362,2.737,0,0,0,0,0,0,2.7092,2.7106,2.7097,2.7147,2.7162,2.7174,2.72,2.7189,2.7209,2.7205,2.7197,2.7201,2.7243,2.7248,2.7224,2.7297,2.7269,2.7275,2.7292,2.73,2.7307,2.7304,2.7193,0,0,0,0,0,2.7105,2.7133,2.7143,2.7186,2.7194,2.7196,2.7211,2.7206,2.7221,2.7226,2.7233,2.7247,2.727,2.7286,2.7307,2.7357,2.7359,2.738,2.7387,2.7392,2.7397,2.7422,2.7431,2.7336,2.7336,2.7336,0,0,2.7132,2.7143,2.7161,2.7193,2.7204,2.7232,2.7202,2.7232,2.7252,2.7231,2.7269,2.7274,2.7289,2.7334,2.7354,2.734,2.7424,2.7398,2.7402,2.7404,2.7427,2.7436,2.7444,2.7339,2.7338,2.7338,0,0,2.7195,2.7207,2.7244,2.7255,2.7273,2.7273,2.7282,2.7296,2.7298,2.7337,2.7321,2.7343,2.7384,2.7395,2.7406,2.7471,2.7457,2.7479,2.7514,2.7538,2.7546,2.7552,2.7574,2.7582,2.7484,2.7484,2.7484,0,2.7226,2.7268,2.7264,2.7295,2.7309,2.7292,2.7327,2.7339,2.7362,2.7371,2.7355,2.7405,2.7414,2.746,2.7476,2.7486,2.7494,2.7477,2.7545,2.7552,2.7558,2.7579,2.7587,2.7486,2.7486,2.7486,2.7485,0,2.7304,2.7334,2.7361,2.7384,2.7401,2.7435,2.7434,2.7451,2.7444,2.7446,2.7484,2.7494,2.7517,2.7528,2.7521,2.7573,2.7563,2.7547,2.7518,2.757,2.7589,2.7597,2.749,2.7489,2.7488,2.7487,0,0,2.7389,2.7409,2.7419,2.7428,2.7446,2.7467,2.7499,2.7522,2.7537,2.7553,2.7578,2.7613,2.7597,2.7609,2.7604,2.7626,2.7675,2.7606,2.7606,2.7617,2.773,2.7741,2.775,2.7666,2.7668,2.7669,2.7728,0,2.7451,2.7508,2.7504,2.7557,2.7583,2.7566,2.7594,2.7607,2.7609,2.763,2.7632,2.7656,2.7635,2.7641,2.7662,2.7665,2.7697,2.766,2.7688,2.7689,2.7684,2.7761,2.7773,2.7829,2.7736,2.7737,2.7738,0,2.7532,2.7552,2.7607,2.7619,2.763,2.7655,2.7675,2.7696,2.7709,2.7709,2.7722,2.7713,2.7743,2.7715,2.7755,2.7731,2.7741,2.7744,2.7746,2.7747,2.7716,2.7763,2.7846,2.7854,2.775,2.7749,2.7748,0,2.7586,2.7626,2.7664,2.7673,2.7688,2.7706,2.7713,2.7725,2.7738,2.7755,2.7764,2.7784,2.7795,2.781,2.7806,2.7786,2.7847,2.7818,2.7846,2.7846,2.7859,2.7858,2.7944,2.7868,2.7868,2.7868,2.7868,0,2.7656,2.769,2.7688,2.7712,2.7749,2.7743,2.778,2.7784,2.7795,2.7817,2.7804,2.7825,2.7819,2.7839,2.7836,2.7869,2.7874,2.7874,2.7872,2.7875,2.7874,2.7881,2.7876,2.787,2.787,2.7869,2.7869,0,2.7722,2.7722,2.7762,2.7774,2.7777,2.7804,2.7812,2.7833,2.7834,2.7863,2.7869,2.7871,2.7894,2.7891,2.7917,2.7915,2.7956,2.795,2.7951,2.795,2.7977,2.7974,2.8069,2.808,2.7999,2.7999,2.8,0,2.7766,2.7792,2.7805,2.782,2.7828,2.7852,2.7866,2.7861,2.7875,2.7892,2.791,2.7933,2.795,2.7988,2.799,2.8009,2.8003,2.8035,2.8006,2.8007,2.8002,2.8,2.8002,2.8041,2.8042,2.8042,2.8043,0,2.7843,2.7841,2.7863,2.7883,2.79,2.7916,2.7931,2.7943,2.7939,2.7956,2.798,2.7994,2.802,2.8042,2.806,2.8065,2.8053,2.8052,2.8059,2.8061,2.806,2.806,2.7966,2.805,2.8049,2.8049,2.8048,2.8048,2.7898,2.7919,2.7932,2.7956,2.7966,2.798,2.7999,2.8003,2.8023,2.8045,2.804,2.8067,2.8078,2.8101,2.8108,2.8128,2.8116,2.8127,2.8129,2.8132,2.8134,2.8058,2.8131,2.8131,2.8131,2.8131,2.8131,0,2.7973,2.798,2.8002,2.8022,2.804,2.8028,2.8043,2.8059,2.8082,2.8094,2.8112,2.8138,2.8159,2.8163,2.8182,2.8197,2.8192,2.8202,2.82,2.8201,2.8144,2.8136,2.8206,2.8206,2.8206,2.8206,2.8206,2.8206,2.8014,2.8049,2.8049,2.8089,2.8096,2.8122,2.8131,2.8143,2.8152,2.8183,2.82,2.8203,2.8211,2.8231,2.8248,2.8249,2.8256,2.8268,2.8266,2.8213,2.8205,2.8198,2.819,2.827,2.827,2.8321,2.8322,2.8322]}]]